Aurora, CO

3:00 AM MST on December 08, 2016 (GMT -0700)
Buckley Air Force Base

Weather History for KBKF - June, 2013

Change the Weather History Date:

Monday, June 17, 2013

  Actual Average Record
Temperature  
Mean Temperature 66 °F -  
Max Temperature 78 °F 77 °F 95 °F (2012)
Min Temperature 53 °F 50 °F 42 °F (2000)
Growing Degree Days 16 (Base 50)    
Moisture  
Dew Point 40 °F    
Average Humidity 39    
Maximum Humidity 62    
Minimum Humidity 20    
Precipitation  
Precipitation 0.00 in - - ()
Sea Level Pressure  
Sea Level Pressure 29.97 in    
Wind  
Wind Speed 5 mph (SSW)    
Max Wind Speed 15 mph    
Max Gust Speed -    
Averages and records for this station are not official NWS values.
T = Trace of Precipitation, MM = Missing Value Source: NWS Daily Summary

Daily Weather History Graph

Daily Weather History Graph

Search for Another Location

Airport or City:

Trip Planner

Search our weather history database for the weather conditions in past years. The results will help you decide how hot, cold, wet, or windy it might be!

Date:

Astronomy

Jun. 17, 2013 Rise Set
Actual Time 5:30 AM MDT 8:29 PM MDT
Civil Twilight 4:58 AM MDT 9:02 PM MDT
Nautical Twilight 4:16 AM MDT 9:43 PM MDT
Astronomical Twilight 3:28 AM MDT 10:31 PM MDT
Moon 2:11 PM MDT (6/17) 1:06 AM MDT (6/17)
Length of Visible Light 16h 04m
Length of Day
14h 58m
First Quarter, 61% of the Moon is Illuminated
Jun 17
First Quarter
Jun 23
Full
Jun 29
Last Quarter
Jul 8
New
Jul 15
First Quarter

Hourly Weather History & Observations

Time (MDT) Temp. Dew Point Humidity Pressure Visibility Wind Dir Wind Speed Gust Speed Precip Events Conditions
12:55 AM 59.0 °F 39.2 °F 48% 29.95 in 25.0 mi Calm Calm - N/A   Partly Cloudy
1:55 AM 57.2 °F 39.2 °F 51% 30.00 in 25.0 mi SW 3.5 mph - N/A   Partly Cloudy
2:55 AM 55.4 °F 39.2 °F 54% 29.98 in 25.0 mi South 8.1 mph - N/A   Partly Cloudy
3:55 AM 53.6 °F 41.0 °F 62% 29.97 in 25.0 mi WSW 5.8 mph - N/A   Partly Cloudy
4:55 AM 53.6 °F 39.2 °F 58% 30.00 in 25.0 mi West 3.5 mph - N/A   Partly Cloudy
5:55 AM 53.6 °F 39.2 °F 58% 29.99 in 70.0 mi West 2.3 mph - N/A   Mostly Cloudy
6:55 AM 53.6 °F 39.2 °F 58% 30.01 in 70.0 mi South 6.9 mph - N/A   Mostly Cloudy
7:55 AM 62.6 °F 41.0 °F 45% 29.99 in 70.0 mi South 5.8 mph - N/A   Mostly Cloudy
8:55 AM 66.2 °F 42.8 °F 43% 30.01 in 70.0 mi SSW 6.9 mph - N/A   Mostly Cloudy
9:55 AM 71.6 °F 39.2 °F 31% 30.01 in 70.0 mi North 4.6 mph - N/A   Mostly Cloudy
10:55 AM 73.4 °F 41.0 °F 31% 30.01 in 70.0 mi NE 8.1 mph - N/A   Mostly Cloudy
11:55 AM 75.2 °F 42.8 °F 31% 30.01 in 70.0 mi East 4.6 mph - N/A   Mostly Cloudy
12:55 PM 75.2 °F 42.8 °F 31% 30.03 in 70.0 mi WNW 8.1 mph - N/A   Mostly Cloudy
1:55 PM 75.2 °F 44.6 °F 34% 29.99 in 25.0 mi South 5.8 mph - N/A   Mostly Cloudy
2:55 PM 78.8 °F 41.0 °F 26% 29.98 in 25.0 mi WNW 8.1 mph - N/A   Mostly Cloudy
3:55 PM 77.0 °F 39.2 °F 26% 29.96 in 25.0 mi South 10.4 mph - N/A   Mostly Cloudy
4:55 PM 78.8 °F 39.2 °F 24% 29.94 in 25.0 mi SW 10.4 mph - N/A   Mostly Cloudy
5:55 PM 78.8 °F 33.8 °F 20% 29.91 in 25.0 mi North 3.5 mph - N/A   Mostly Cloudy
6:55 PM 78.8 °F 35.6 °F 21% 29.90 in 25.0 mi SSE 3.5 mph - N/A   Mostly Cloudy
7:55 PM 77.0 °F 37.4 °F 24% 29.91 in 25.0 mi SE 4.6 mph - N/A   Mostly Cloudy
8:55 PM 69.8 °F 42.8 °F 38% 29.94 in 25.0 mi ESE 5.8 mph - N/A   Mostly Cloudy
9:55 PM 69.8 °F 39.2 °F 33% 29.92 in 25.0 mi SSW 15.0 mph - N/A   Scattered Clouds
10:55 PM 64.4 °F 41.0 °F 42% 29.95 in 25.0 mi South 15.0 mph - N/A   Scattered Clouds
11:55 PM 60.8 °F 41.0 °F 48% 29.96 in 25.0 mi SSW 10.4 mph - N/A   Scattered Clouds